Date String (YYYY-MM-DD hh:mm:ss) UTC,Instrument flags,Ambient pressure (hPa),Sample flow (lpm),Bypass flow (lpm),Sample temperature (°C),Ambient temperature (°C),ASC tube jacket temperature (°C),LED temperature (°C),Box temperature (°C),Sample RH (%),Span deviation,Mass concentration (μg/m³),Mass concentration (μg/m³),Mass concentration (μg/m³)
DateTimeUTC,F1_M11,P_M11,Q1_M11,Q2_M11,T1_M11,T2_M11,T3_M11,T4_M11,T5_M11,U1_M11,ZSPAN_M11,X0_M11,X2_M11,X1_M11
2022-04-16 23:00:00,,0819.9,4.99,0.00,27.7,27.0,00.0,36.4,29.6,09.6,0004.8,0029.27,0011.35,0009.38
2022-04-16 23:01:00,,0819.9,5.00,0.00,27.7,27.0,00.0,36.5,29.6,09.7,0005.2,0029.54,0011.33,0009.35
2022-04-16 23:02:00,,0819.9,5.00,0.00,27.7,27.0,00.0,36.5,29.6,09.7,0004.7,0029.96,0011.46,0009.36
2022-04-16 23:03:00,,0819.9,5.02,0.00,27.7,27.0,00.0,36.5,29.6,09.7,0003.6,0027.88,0011.58,0009.36
2022-04-16 23:04:00,,0819.9,5.00,0.00,27.8,27.0,00.0,36.5,29.6,09.6,0003.2,0026.98,0011.58,0009.36
2022-04-16 23:05:00,,0819.9,4.99,0.00,27.8,27.1,00.0,36.5,29.6,09.7,0003.9,0026.60,0011.55,0009.36
2022-04-16 23:06:00,,0819.9,5.00,0.00,27.8,27.1,00.0,36.5,29.7,09.7,0005.3,0025.06,0011.48,0009.33
2022-04-16 23:07:00,,0819.9,5.01,0.00,27.8,27.1,00.0,36.5,29.7,09.6,0004.9,0025.61,0011.47,0009.32
2022-04-16 23:08:00,,0819.9,4.99,0.00,27.8,27.1,00.0,36.6,29.7,09.6,0004.4,0025.98,0011.45,0009.29
2022-04-16 23:09:00,,0819.9,5.01,0.00,27.8,27.1,00.0,36.6,29.7,09.6,0004.1,0026.26,0011.45,0009.29
2022-04-16 23:10:00,,0819.9,5.01,0.00,27.8,27.1,00.0,36.6,29.7,09.6,0003.3,0026.44,0011.40,0009.28
2022-04-16 23:11:00,,0819.9,4.99,0.00,27.8,27.1,00.0,36.6,29.7,09.6,0003.3,0025.37,0011.36,0009.26
2022-04-16 23:12:00,,0819.9,4.99,0.00,27.8,27.1,00.0,36.6,29.7,09.6,0003.1,0024.26,0011.34,0009.28
2022-04-16 23:13:00,,0819.9,5.02,0.00,27.9,27.1,00.0,36.6,29.7,09.5,0003.2,0023.92,0011.22,0009.26
2022-04-16 23:14:00,,0819.9,5.00,0.00,27.9,27.1,00.0,36.6,29.7,09.5,0003.1,0024.34,0011.10,0009.23
2022-04-16 23:15:00,,0819.9,4.99,0.00,27.9,27.2,00.0,36.7,29.8,09.6,0002.4,0024.43,0011.02,0009.21
2022-04-16 23:16:00,,0819.9,5.00,0.00,27.9,27.2,00.0,36.7,29.8,09.6,0001.9,0024.72,0011.00,0009.18
2022-04-16 23:17:00,,0819.9,5.01,0.00,27.9,27.2,00.0,36.7,29.8,09.6,0001.8,0024.84,0010.94,0009.17
2022-04-16 23:18:00,,0819.9,5.00,0.00,27.9,27.2,00.0,36.7,29.8,09.5,0001.6,0023.86,0010.93,0009.17
2022-04-16 23:19:00,,0819.9,4.99,0.00,27.9,27.2,00.0,36.7,29.8,09.5,0001.6,0023.71,0010.91,0009.13
2022-04-16 23:20:00,,0819.9,5.01,0.00,28.0,27.2,00.0,36.7,29.8,09.5,0002.2,0023.21,0010.86,0009.11
2022-04-16 23:21:00,,0819.9,5.00,0.00,28.0,27.2,00.0,36.7,29.8,09.4,0002.0,0022.85,0010.78,0009.10
2022-04-16 23:22:00,,0819.9,5.00,0.00,28.0,27.2,00.0,36.7,29.8,09.4,0002.2,0023.30,0010.85,0009.10
2022-04-16 23:23:00,,0820.0,5.00,0.00,28.0,27.3,00.0,36.8,29.8,09.4,0001.8,0023.99,0010.81,0009.07
2022-04-16 23:24:00,,0820.0,4.99,0.00,28.0,27.3,00.0,36.8,29.9,09.5,0001.4,0024.69,0010.83,0009.05
2022-04-16 23:25:00,,0820.0,5.00,0.00,28.0,27.3,00.0,36.8,29.9,09.4,0001.6,0024.72,0010.87,0009.04
2022-04-16 23:26:00,,0820.0,5.01,0.00,28.0,27.3,00.0,36.8,29.9,09.4,0002.3,0024.41,0010.86,0009.03
2022-04-16 23:27:00,,0820.1,5.00,0.00,28.0,27.3,00.0,36.8,29.9,09.4,0002.2,0025.22,0010.86,0009.01
2022-04-16 23:28:00,,0820.1,5.00,0.00,28.0,27.3,00.0,36.8,29.9,09.4,0001.7,0024.64,0010.89,0008.99
2022-04-16 23:29:00,,0820.1,4.98,0.00,28.1,27.3,00.0,36.8,29.9,09.5,0001.5,0025.41,0010.93,0008.98
2022-04-16 23:30:00,,0820.2,5.01,0.00,28.1,27.3,00.0,36.8,29.9,09.5,0002.3,0026.28,0010.87,0008.97
2022-04-16 23:31:00,,0820.2,5.00,0.00,28.1,27.3,00.0,36.8,29.9,09.5,0001.7,0027.98,0010.90,0008.98
2022-04-16 23:32:00,,0820.2,4.99,0.00,28.1,27.3,00.0,36.8,30.0,09.5,0001.0,0028.81,0010.90,0008.95
2022-04-16 23:33:00,,0820.2,5.02,0.00,28.1,27.3,00.0,36.9,30.0,09.5,0001.0,0029.45,0010.81,0008.88
2022-04-16 23:34:00,,0820.2,4.99,0.00,28.1,27.4,00.0,36.9,30.0,09.5,0000.9,0028.78,0010.72,0008.85
2022-04-16 23:35:00,,0820.2,4.99,0.00,28.1,27.4,00.0,36.9,30.0,09.4,0001.2,0028.79,0010.62,0008.80
2022-04-16 23:36:00,,0820.2,5.01,0.00,28.1,27.4,00.0,36.9,30.0,09.4,0001.0,0028.85,0010.56,0008.77
2022-04-16 23:37:00,,0820.2,5.01,0.00,28.1,27.4,00.0,36.9,30.0,09.4,0001.1,0029.57,0010.60,0008.73
2022-04-16 23:38:00,,0820.1,4.99,0.00,28.1,27.4,00.0,36.9,30.0,09.4,0001.3,0028.55,0010.60,0008.70
2022-04-16 23:39:00,,0820.1,5.00,0.00,28.1,27.4,00.0,36.9,30.0,09.4,0001.1,0029.07,0010.60,0008.67
2022-04-16 23:40:00,,0820.1,5.01,0.00,28.2,27.4,00.0,36.9,30.0,09.4,0001.2,0027.67,0010.49,0008.62
2022-04-16 23:41:00,,0820.1,4.99,0.00,28.2,27.4,00.0,36.9,30.0,09.4,0000.6,0026.49,0010.44,0008.57
2022-04-16 23:42:00,,0820.0,5.00,0.00,28.2,27.4,00.0,36.9,30.0,09.4,0001.0,0025.24,0010.37,0008.51
2022-04-16 23:43:00,,0820.0,5.02,0.00,28.2,27.4,00.0,37.0,30.0,09.5,0001.4,0024.18,0010.33,0008.47
2022-04-16 23:44:00,,0819.9,5.00,0.00,28.2,27.4,00.0,37.0,30.0,09.5,0001.8,0025.24,0010.37,0008.49
2022-04-16 23:45:00,,0819.9,4.99,0.00,28.2,27.4,00.0,37.0,30.0,09.4,0002.5,0025.58,0010.48,0008.52
2022-04-16 23:46:00,,0819.9,5.02,0.00,28.2,27.4,00.0,37.0,30.1,09.4,0002.9,0024.77,0010.52,0008.54
2022-04-16 23:47:00,,0819.9,4.99,0.00,28.2,27.4,00.0,37.0,30.0,09.4,0002.8,0023.89,0010.56,0008.55
2022-04-16 23:48:00,,0819.9,5.01,0.00,28.2,27.4,00.0,37.0,30.1,09.4,0003.2,0023.37,0010.52,0008.57
2022-04-16 23:49:00,,0819.9,5.01,0.00,28.2,27.5,00.0,37.0,30.1,09.4,0003.9,0024.43,0010.54,0008.62
2022-04-16 23:50:00,,0819.9,4.99,0.00,28.2,27.4,00.0,37.0,30.1,09.4,0004.2,0025.67,0010.56,0008.68
2022-04-16 23:51:00,,0820.0,5.00,0.00,28.2,27.4,00.0,37.0,30.1,09.4,0004.0,0026.55,0010.66,0008.76
2022-04-16 23:52:00,,0819.9,4.98,0.00,28.3,27.4,00.0,37.0,30.1,09.4,0004.6,0027.28,0010.79,0008.84
2022-04-16 23:53:00,,0819.9,5.01,0.00,28.2,27.5,00.0,37.0,30.1,09.4,0004.3,0028.03,0010.86,0008.90
2022-04-16 23:54:00,,0819.9,4.99,0.00,28.3,27.5,00.0,37.0,30.1,09.4,0004.2,0028.50,0010.90,0008.94
2022-04-16 23:55:00,,0819.9,4.99,0.00,28.3,27.4,00.0,37.0,30.1,09.4,0004.1,0026.98,0010.91,0008.98
2022-04-16 23:56:00,,0819.8,4.99,0.00,28.3,27.5,00.0,37.1,30.1,09.4,0004.0,0026.03,0010.89,0008.98
2022-04-16 23:57:00,,0819.8,5.01,0.00,28.3,27.5,00.0,37.1,30.1,09.4,0003.8,0027.12,0010.89,0008.99
2022-04-16 23:58:00,,0819.8,5.01,0.00,28.3,27.5,00.0,37.1,30.1,09.4,0004.1,0028.56,0010.88,0009.02
2022-04-16 23:59:00,,0819.8,4.99,0.00,28.3,27.4,00.0,37.1,30.1,09.5,0004.2,0029.20,0010.97,0009.06
